This is the latest recevied weather packets stored in our database for station/object F4FEB-13. If no packets are shown the sender has not sent any weather packets the latest 1 day(s).
| Time | Temp. | Humidity | Pressure | Rain* | Wind** | Luminosity | Snow |
|---|---|---|---|---|---|---|---|
| 1778002158 | 12.22° C | 86% | 1008.4 hPa | 0 mm | 2.68 m/s, 244° | - | - |
| 1778001858 | 12.78° C | 86% | 1008.3 hPa | 0.25 mm | 1.79 m/s, 277° | - | - |
| 1778001558 | 12.78° C | 87% | 1008.5 hPa | 0.25 mm | 3.13 m/s, 227° | - | - |
| 1778001261 | 12.78° C | 88% | 1008.3 hPa | 0.25 mm | 2.24 m/s, 226° | - | - |
| 1778001258 | 12.78° C | 88% | 1008.3 hPa | 0.25 mm | 2.24 m/s, 226° | - | - |
| 1778000958 | 12.78° C | 87% | 1008.1 hPa | 0.25 mm | 2.24 m/s, 168° | - | - |
| 1778000658 | 12.78° C | 86% | 1008 hPa | 0.25 mm | 2.24 m/s, 250° | - | - |
| 1778000361 | 12.78° C | 86% | 1008 hPa | 0.25 mm | 1.79 m/s, 232° | - | - |
| 1778000358 | 12.78° C | 86% | 1008 hPa | 0.25 mm | 1.79 m/s, 232° | - | - |
| 1778000058 | 12.78° C | 87% | 1008.1 hPa | 0.25 mm | 2.24 m/s, 267° | - | - |
| 1777999758 | 13.33° C | 87% | 1008.2 hPa | 0.51 mm | 3.58 m/s, 165° | - | - |
| 1777999461 | 13.33° C | 87% | 1008.3 hPa | 1.52 mm | 4.47 m/s, 246° | - | - |
| 1777999458 | 13.33° C | 87% | 1008.3 hPa | 1.52 mm | 4.47 m/s, 246° | - | - |
| 1777999158 | 13.33° C | 88% | 1008.3 hPa | 1.78 mm | 4.02 m/s, 158° | - | - |
| 1777998858 | 13.33° C | 87% | 1008.3 hPa | 1.78 mm | 2.24 m/s, 174° | - | - |
| 1777998558 | 13.33° C | 90% | 1008.2 hPa | 1.78 mm | 3.13 m/s, 239° | - | - |
| 1777998258 | 13.33° C | 90% | 1008.2 hPa | 1.52 mm | 2.68 m/s, 142° | - | - |
| 1777997958 | 13.33° C | 91% | 1008.2 hPa | 1.52 mm | 1.79 m/s, 171° | - | - |
| 1777997661 | 13.89° C | 90% | 1008.2 hPa | 1.52 mm | 1.79 m/s, 243° | - | - |
| 1777997658 | 13.89° C | 90% | 1008.2 hPa | 1.52 mm | 1.79 m/s, 243° | - | - |
| 1777997358 | 13.33° C | 87% | 1008 hPa | 1.52 mm | 2.24 m/s, 247° | - | - |
| 1777997058 | 13.89° C | 85% | 1007.8 hPa | 1.52 mm | 0.89 m/s, 270° | - | - |
| 1777996758 | 13.89° C | 83% | 1007.7 hPa | 1.52 mm | 1.34 m/s, 295° | - | - |
| 1777996458 | 13.89° C | 82% | 1007.8 hPa | 1.52 mm | 2.24 m/s, 250° | - | - |
| 1777996158 | 13.89° C | 78% | 1007.8 hPa | 1.27 mm | 3.58 m/s, 265° | - | - |
* Rain latest hour (hover to see other rain measurements)
** Current wind speed in m/s (hover to see current wind gust speed)